STARLINK-1695, 46329

Orbit data source: Space-Track

STARLINK-1695, 46329 is a payload satellite owned by SpaceX/Seattle (US) in LEO that was launched on Thu, 03 Sep 2020 UTC via an FALCON 9 launch vehicle from the Air Force Eastern Test Range (AFETR). Payload-class satellites include a variety of spacecraft equipped with specific instruments for various scientific and technological missions. These include communications satellites like Starlink; space stations such as the ISS; scientific satellites like the Hubble; Earth observation satellites from companies like Planet Labs, Umbra, and HawkEye 360; GPS; miniature CubeSats for education and research; and military/defense satellites.

Loading next visibility...
Identifier
46329, 2020-062E
Orbit
LEO
Last TLE update
13 hours ago
Origin
Manufacturer
SpaceX/Seattle
Mission
Operational Commercial Communications
Bus & Motor
STARLINK, Unknown motor
Mass
260 kg wet, ~248 kg dry
Launch date (UTC)
2020-09-03 (5 years ago)
Launch vehicle
FALCON 9
Launch site
Air Force Eastern Test Range (AFETR)
Object type
Payload
Rocket body
Debris
Shape & HBR
Box + 1 Pan, 8.86 m
Radar Cross Section
13.562 m², Large (>1 m²)

Expand to show TLE details & history

TLE from 13 hours ago
0 STARLINK-1695
1 46329U 20062E   25128.68886463  .00000519  00000-0  53761-4 0  9992
2 46329  53.0540 285.8182 0001195  89.4580 270.6546 15.06400391258618
Epoch: 2025-05-08T16:31Z
Definitive object data (Epoch: 2025-05-08T16:31:57.904Z)
Latitude
0.00001°
Longitude
171.07118°
Altitude
548.08 km
Speed
7.589 km/s
True Right ascension
19h 03m 16s
True Declination
0° 00' 00"
Sunlit
Object was in full shadow at TLE epoch
Visualization TLE readout
Latitude
43.61581°
Longitude
-56.864°
Altitude
550.857 km
Speed
7.592 km/s
Apparent Right ascension
02h 54m 59s
Apparent Declination
4° 05' 02"
Sunlit
Object is in daylight
Visualization observer readout
Local Sidereal Time
13:56:58
Azimuth
339.671° N
Elevation
-44.024°
Doppler factor
1
Orbital elements
Apogee altitude
548.309 km
Perigee altitude
546.654 km
Semi-major axis
6,925.618 km
Eccentricity
0.0001195
Inclination
53.054°
RAAN
285.8182°
Arg. of periapsis
89.458°
True anomaly
270.64091°
Mean anomaly
270.6546°
Eccentric anomaly
270.64775°
Mean motion
3.76578 °/min
BSTAR
0.000053761
Orbital period
95.6 mins
Loading maneuver chart data...
Loading SW <> Apogee altitude chart data...
Loading historical data...
Loading historical data...
Loading historical data...
Loading historical data...
Loading historical data...
Loading historical data...
Loading historical data...

STARLINK-1695 Visibility forecast

Observer location: undefined°, undefined°

Span
Click to sort rows by Start time (UTC) header in descending order
Start Az.
Max El. time (UTC)
Max El. Az.
Max El.
End time (UTC)
End Az.
4 mins2025-05-09 11:47:14.738Z163.58° S2025-05-09 11:49:14.738Z133.251° SE15.619°2025-05-09 11:51:14.738Z99.203° ESE
6 mins2025-05-09 13:26:14.738Z243.21° WSW2025-05-09 13:28:14.738Z278.781° WNW41.129°2025-05-09 13:32:14.738Z44.942° NE
4 mins2025-05-09 15:07:14.738Z312.509° NW2025-05-09 15:09:14.738Z349.169° N17.401°2025-05-09 15:11:14.738Z21.231° NNE
5 mins2025-05-09 18:28:14.738Z341.598° N2025-05-09 18:30:14.738Z20.273° NNE22.314°2025-05-09 18:33:14.738Z75.179° E
7 mins2025-05-09 20:07:14.738Z303.238° NW2025-05-09 20:10:14.738Z223.899° SW42.982°2025-05-09 20:14:14.738Z140.054° SSE
|